Location: Stockholm
(59.3333°N, 18.0500°E)
Time: 02:23:38
(UTC+02:00)

Cosmos 864 Rocket - Pass Details

Date: 01 March 2019
Orbit: 954 x 991 km, 82.9° (Epoch: 19 October)

Event Time Altitude Azimuth Distance (km) Brightness Sun altitude
Rises 18:36:23 0° 346° (NNW) 3,718 7.8 -11.1°
Reaches altitude 10° 18:38:57 10° 349° (N) 2,763 7.1 -11.4°
Maximum altitude 18:45:17 68° 73° (ENE) 1,057 4.5 -12.2°
Drops below altitude 10° 18:51:31 10° 156° (SSE) 2,724 6.5 -13.0°
Sets 18:54:02 0° 159° (SSE) 3,663 7.2 -13.3°
